Weather History for Augusta Bush, GA

Change the Weather History Date:

Wednesday, February 12, 2014

  Actual Average Record
Temperature  
Mean Temperature 32 °F 48 °F  
Max Temperature 34 °F 62 °F 78 °F (1922)
Min Temperature 30 °F 35 °F 9 °F (1973)
Degree Days  
Heating Degree Days 33 17  
Month to date heating degree days 226 210  
Since 1 July heating degree days 1927 1795  
Cooling Degree Days 0 0  
Month to date cooling degree days 0 0  
Year to date cooling degree days 0 1  
Moisture  
Dew Point 29 °F    
Average Humidity 93    
Maximum Humidity 100    
Minimum Humidity 85    
Precipitation  
Precipitation 1.92 in 0.13 in 2.25 in (1905)
Month to date precipitation 2.81 1.58  
Year to date precipitation 5.29 5.49  
Sea Level Pressure  
Sea Level Pressure 30.07 in    
Wind  
Wind Speed 12 mph (NE)    
Max Wind Speed 23 mph    
Max Gust Speed 29 mph    
Visibility 4 miles    
Events Rain , Snow    
T = Trace of Precipitation, MM = Missing Value Source: NWS Daily Summary

Daily Weather History Graph

Daily Weather History Graph

Search for Another Location

Airport:

Trip Planner

Search our weather history database for the weather conditions in past years. The results will help you decide how hot, cold, wet, or windy it might be!

Date:

Astronomy

Feb. 12, 2014 Rise Set
Actual Time 7:14 AM EST 6:09 PM EST
Civil Twilight 6:49 AM EST 6:35 PM EST
Nautical Twilight 6:19 AM EST 7:04 PM EST
Astronomical Twilight 5:51 AM EST 7:33 PM EST
Moon 4:24 PM EST (2/12) 5:27 AM EST (2/12)
Length of Visible Light 11h 46m
Length of Day
10h 55m
Waxing Gibbous, 95% of the Moon is Illuminated
Feb 12
Waxing Gibbous
Feb 14
Full
Feb 22
Last Quarter
Mar 1
New
Mar 8
First Quarter

Hourly Weather History & Observations

Time (EST) Temp. Windchill Dew Point Humidity Pressure Visibility Wind Dir Wind Speed Gust Speed Precip Events Conditions
12:53 AM 34.0 °F 26.0 °F 30.0 °F 85% 30.29 in 7.0 mi NE 10.4 mph - 0.01 in Rain Light Rain
1:53 AM 33.1 °F 24.9 °F 30.9 °F 92% 30.28 in 5.0 mi ENE 10.4 mph - 0.04 in Rain Rain
2:00 AM 33.1 °F 26.1 °F 30.9 °F 92% 30.28 in 5.0 mi NE 8.1 mph - 0.01 in Rain Rain
2:17 AM 33.1 °F 24.4 °F 30.9 °F 92% 30.27 in 5.0 mi NE 11.5 mph - 0.04 in Rain Rain
2:28 AM 33.1 °F 24.4 °F 30.0 °F 89% 30.27 in 6.0 mi NE 11.5 mph - 0.05 in Rain Light Rain
2:53 AM 33.1 °F 24.9 °F 30.0 °F 89% 30.27 in 5.0 mi NE 10.4 mph - 0.06 in Rain Rain
3:02 AM 32.0 °F 22.5 °F 30.0 °F 92% 30.27 in 4.0 mi NNE 12.7 mph - 0.03 in Rain Heavy Rain
3:16 AM 32.0 °F 21.6 °F 28.9 °F 88% 30.26 in 4.0 mi NE 15.0 mph - 0.08 in   Overcast
3:21 AM 32.0 °F 21.6 °F 28.9 °F 88% 30.26 in 4.0 mi NE 15.0 mph - 0.09 in Rain Light Freezing Rain
3:53 AM 30.9 °F 20.7 °F 28.0 °F 89% 30.26 in 5.0 mi ENE 13.8 mph - 0.15 in Rain Light Freezing Rain
4:53 AM 30.9 °F 22.2 °F 28.0 °F 89% 30.26 in 5.0 mi NE 10.4 mph - 0.12 in Rain Light Freezing Rain
5:41 AM 30.9 °F 20.7 °F 28.0 °F 89% 30.25 in 5.0 mi ENE 13.8 mph - 0.07 in Rain Light Freezing Rain
5:47 AM 30.2 °F 19.8 °F 28.4 °F 93% 30.26 in 6.0 mi NE 13.8 mph - 0.08 in   Overcast
5:53 AM 30.9 °F 21.2 °F 28.0 °F 89% 30.26 in 5.0 mi ENE 12.7 mph - 0.09 in Rain Light Freezing Rain
6:21 AM 30.9 °F 20.7 °F 28.0 °F 89% 30.26 in 5.0 mi NE 13.8 mph - 0.05 in Rain Light Freezing Rain
6:53 AM 30.9 °F 19.8 °F 28.0 °F 89% 30.26 in 6.0 mi ENE 16.1 mph 23.0 mph 0.12 in Rain Light Freezing Rain
7:46 AM 30.9 °F 19.4 °F 28.0 °F 89% 30.25 in 6.0 mi NE 17.3 mph 24.2 mph 0.09 in Rain Light Freezing Rain
7:53 AM 30.9 °F 18.4 °F 28.0 °F 89% 30.25 in 5.0 mi NE 20.7 mph 25.3 mph 0.10 in Rain Light Freezing Rain
8:45 AM 30.9 °F 20.7 °F 28.9 °F 92% 30.23 in 2.0 mi NE 13.8 mph 20.7 mph 0.11 in Rain Light Freezing Rain
8:53 AM 30.9 °F 22.2 °F 28.9 °F 92% 30.23 in 1.5 mi NE 10.4 mph - 0.14 in Rain Light Freezing Rain
9:43 AM 30.9 °F 20.7 °F 28.9 °F 92% 30.23 in 1.2 mi NE 13.8 mph - 0.18 in   Ice Pellets
9:50 AM 30.2 °F 21.3 °F 28.4 °F 93% 30.25 in 1.2 mi ENE 10.4 mph - 0.21 in   Ice Pellets
9:53 AM 30.9 °F 21.7 °F 28.9 °F 92% 30.25 in 1.0 mi ENE 11.5 mph - 0.23 in   Ice Pellets
10:24 AM 32.0 °F 23.6 °F 30.0 °F 92% 30.20 in 1.5 mi ENE 10.4 mph - 0.12 in   Ice Pellets
10:36 AM 32.0 °F 21.6 °F 30.0 °F 92% 30.17 in 2.0 mi NE 15.0 mph 25.3 mph 0.15 in   Ice Pellets
10:43 AM 32.0 °F 23.6 °F 30.0 °F 92% 30.19 in 2.5 mi East 10.4 mph 25.3 mph 0.17 in   Ice Pellets
10:50 AM 32.0 °F 24.8 °F 30.2 °F 93% 30.20 in 3.0 mi East 8.1 mph - 0.18 in   Ice Pellets
10:53 AM 32.0 °F 20.8 °F 30.0 °F 92% 30.20 in 3.0 mi ENE 17.3 mph 23.0 mph 0.19 in   Ice Pellets
11:29 AM 32.0 °F 22.5 °F 30.0 °F 92% 30.20 in 2.5 mi NNE 12.7 mph 21.9 mph 0.05 in   Ice Pellets
11:53 AM 32.0 °F 25.6 °F 30.0 °F 92% 30.21 in 2.0 mi ENE 6.9 mph - 0.12 in   Ice Pellets
12:06 PM 32.0 °F 24.8 °F 30.9 °F 96% 30.18 in 2.0 mi NE 8.1 mph - 0.03 in   Ice Pellets
12:15 PM 32.0 °F 23.0 °F 30.0 °F 92% 30.18 in 3.0 mi NE 11.5 mph - 0.04 in   Ice Pellets
12:53 PM 32.0 °F 23.0 °F 30.9 °F 96% 30.12 in 2.5 mi NE 11.5 mph - 0.09 in   Ice Pellets
1:03 PM 32.0 °F 24.8 °F 30.9 °F 96% 30.11 in 4.0 mi ENE 8.1 mph - 0.01 in   Ice Pellets
1:53 PM 32.0 °F 22.1 °F 30.0 °F 92% 30.06 in 4.0 mi NNE 13.8 mph - 0.05 in   Ice Pellets
2:19 PM 32.0 °F 21.6 °F 30.0 °F 92% 30.02 in 5.0 mi NE 15.0 mph - 0.01 in   Light Ice Pellets
2:53 PM 32.0 °F 22.5 °F 28.9 °F 88% 30.00 in 6.0 mi NE 12.7 mph 20.7 mph 0.01 in   Light Ice Pellets
3:20 PM 32.0 °F 22.1 °F 28.9 °F 88% 29.98 in 2.5 mi NE 13.8 mph - 0.00 in   Light Ice Pellets
3:30 PM 30.9 °F 21.7 °F 28.9 °F 92% 29.96 in 6.0 mi NE 11.5 mph - 0.00 in   Light Ice Pellets
3:53 PM 30.9 °F 23.5 °F 28.9 °F 92% 29.97 in 10.0 mi NE 8.1 mph - 0.00 in   Light Ice Pellets
4:04 PM 30.9 °F 22.2 °F 28.9 °F 92% 29.97 in 3.0 mi NE 10.4 mph - 0.00 in   Overcast
4:24 PM 30.9 °F 21.2 °F 28.9 °F 92% 29.97 in 2.0 mi NE 12.7 mph 20.7 mph 0.00 in   Overcast
4:46 PM 30.9 °F 21.2 °F 28.9 °F 92% 29.96 in 1.5 mi NE 12.7 mph - 0.01 in   Overcast
4:53 PM 30.9 °F 21.2 °F 28.9 °F 92% 29.96 in 3.0 mi ENE 12.7 mph - 0.01 in   Overcast
5:50 PM 30.2 °F 20.2 °F 28.4 °F 93% 29.93 in 2.0 mi NE 12.7 mph - 0.01 in   Overcast
5:53 PM 30.9 °F 22.2 °F 28.9 °F 92% 29.94 in 2.5 mi NE 10.4 mph - 0.01 in   Overcast
6:09 PM 30.9 °F 20.7 °F 28.9 °F 92% 29.93 in 4.0 mi ENE 13.8 mph - 0.00 in   Overcast
6:17 PM 30.9 °F 21.2 °F 28.9 °F 92% 29.93 in 4.0 mi NE 12.7 mph - 0.00 in Rain Light Freezing Rain
6:53 PM 30.9 °F 22.2 °F 28.9 °F 92% 29.92 in 3.0 mi NE 10.4 mph - 0.00 in   Overcast
7:53 PM 30.9 °F 23.5 °F 28.9 °F 92% 29.88 in 7.0 mi NE 8.1 mph - 0.00 in   Overcast
8:06 PM 30.9 °F 22.8 °F 28.9 °F 92% 29.87 in 8.0 mi NE 9.2 mph - N/A   Overcast
8:31 PM 30.9 °F 22.2 °F 28.9 °F 92% 29.87 in 3.0 mi NE 10.4 mph - 0.01 in   Overcast
8:53 PM 30.9 °F 22.8 °F 28.9 °F 92% 29.85 in 7.0 mi NE 9.2 mph - 0.01 in   Overcast
9:21 PM 30.9 °F 24.3 °F 30.0 °F 96% 29.84 in 2.5 mi NNE 6.9 mph - 0.00 in   Overcast
9:32 PM 30.9 °F 23.5 °F 30.0 °F 96% 29.83 in 2.5 mi NNE 8.1 mph - 0.00 in Rain Light Freezing Rain
9:49 PM 30.2 °F 21.9 °F 30.2 °F 100% 29.84 in 3.0 mi North 9.2 mph - 0.00 in Rain Light Freezing Rain
9:53 PM 30.9 °F 21.7 °F 30.0 °F 96% 29.85 in 2.5 mi North 11.5 mph - 0.00 in Rain Light Freezing Rain
10:08 PM 30.9 °F 21.7 °F 30.0 °F 96% 29.84 in 3.0 mi North 11.5 mph - 0.01 in Snow Light Snow
10:19 PM 30.9 °F 22.2 °F 30.0 °F 96% 29.84 in 2.5 mi North 10.4 mph - 0.02 in Snow Light Snow
10:27 PM 30.9 °F 22.8 °F 30.0 °F 96% 29.82 in 1.8 mi North 9.2 mph - 0.06 in Rain Light Freezing Rain
10:33 PM 30.9 °F 22.8 °F 30.0 °F 96% 29.82 in 2.0 mi North 9.2 mph - 0.10 in Rain Light Freezing Rain
10:36 PM 30.9 °F 22.8 °F 30.0 °F 96% 29.82 in 2.5 mi North 9.2 mph - 0.10 in Rain Light Freezing Rain
10:39 PM 30.9 °F 22.8 °F 30.0 °F 96% 29.81 in 4.0 mi North 9.2 mph - 0.10 in Rain Light Freezing Rain
10:47 PM 30.2 °F 20.2 °F 30.2 °F 100% 29.80 in 3.0 mi NNE 12.7 mph - 0.13 in   Overcast
10:48 PM 30.9 °F 21.2 °F 30.0 °F 96% 29.81 in 3.0 mi NNE 12.7 mph - 0.13 in   Overcast
11:43 PM 32.0 °F 22.5 °F 30.0 °F 92% 29.78 in 5.0 mi North 12.7 mph - 0.18 in   Overcast
11:53 PM 32.0 °F 24.2 °F 30.0 °F 92% 29.78 in 3.0 mi NNE 9.2 mph - 0.22 in   Overcast